{"data":{"norad_id":57984,"epoch":"2026-09-20T11:25:22.129248Z","epoch_age_seconds":139736,"freshness":"FRESH","line1":"1 57984U 23151W   26263.47595057 -.00000683  00000+0 -15324-4 0  9993","line2":"2 57984  42.9961 334.0193 0001007 145.5582 214.5335 15.27570897165340","mean_motion":15.27570897,"eccentricity":0.0001007,"inclination_deg":42.9961,"raan_deg":334.0193,"arg_perigee_deg":145.5582,"mean_anomaly_deg":214.5335,"bstar":-1.5324e-5,"rev_number":16534,"period_min":94.267310461859,"perigee_km":482.38542964707,"apogee_km":483.76727801653,"semimajor_km":6861.2133538318,"source":"CELESTRAK","updated_at":"2026-09-21T09:00:33.752471Z"}}